Weather History for London City, United Kingdom

Change the Weather History Date:

Friday, August 30, 2013

  Actual Average Record
Temperature  
Mean Temperature 68 °F -  
Max Temperature 77 °F 67 °F 78 °F (2005)
Min Temperature 60 °F 56 °F 50 °F (2003)
Cooling Degree Days 4    
Growing Degree Days 18 (Base 50)    
Moisture  
Dew Point 57 °F    
Average Humidity 67    
Maximum Humidity 88    
Minimum Humidity 47    
Precipitation  
Precipitation 0.00 in - - ()
Sea Level Pressure  
Sea Level Pressure 30.09 in    
Wind  
Wind Speed 10 mph ()    
Max Wind Speed 17 mph    
Max Gust Speed -    
Visibility 6.2 miles    
Events      
Averages and records for this station are not official NWS values.
T = Trace of Precipitation, MM = Missing Value Source: Averaged Metar Reports

Daily Weather History Graph

Daily Weather History Graph

Search for Another Location

Airport:

Trip Planner

Search our weather history database for the weather conditions in past years. The results will help you decide how hot, cold, wet, or windy it might be!

Date:

Astronomy

Aug. 30, 2013 Rise Set
Actual Time 6:09 AM BST 7:50 PM BST
Civil Twilight 5:34 AM BST 8:25 PM BST
Nautical Twilight 4:50 AM BST 9:08 PM BST
Astronomical Twilight 4:02 AM BST 9:56 PM BST
Moon 12:13 AM BST (8/30) 4:16 PM BST (8/30)
Length of Visible Light 14h 51m
Length of Day
13h 41m
Waning Crescent, 31% of the Moon is Illuminated
Aug 30
Waning Crescent
Sep 5
New
Sep 12
First Quarter
Sep 19
Full
Sep 27
Last Quarter

Hourly Weather History & Observations

Time (BST) Temp. Dew Point Humidity Pressure Visibility Wind Dir Wind Speed Gust Speed Precip Events Conditions
12:20 AM 66.2 °F 57.2 °F 73% 30.15 in 6.2 mi WSW 9.2 mph - N/A   Unknown
12:50 AM 66.2 °F 57.2 °F 73% 30.15 in 6.2 mi WSW 8.1 mph - N/A   Unknown
1:20 AM 64.4 °F 57.2 °F 77% 30.15 in 6.2 mi WSW 10.4 mph - N/A   Unknown
1:50 AM 64.4 °F 57.2 °F 77% 30.12 in 6.2 mi SW 6.9 mph - N/A   Unknown
2:20 AM 64.4 °F 57.2 °F 77% 30.12 in 6.2 mi WSW 9.2 mph - N/A   Unknown
2:50 AM 62.6 °F 57.2 °F 82% 30.12 in 6.2 mi WSW 8.1 mph - N/A   Unknown
3:20 AM 62.6 °F 57.2 °F 82% 30.12 in 6.2 mi WSW 9.2 mph - N/A   Unknown
3:50 AM 62.6 °F 57.2 °F 82% 30.12 in 6.2 mi WSW 9.2 mph - N/A   Unknown
4:20 AM 64.4 °F 57.2 °F 77% 30.12 in 6.2 mi WSW 8.1 mph - N/A   Unknown
4:50 AM 62.6 °F 57.2 °F 82% 30.12 in 6.2 mi WSW 9.2 mph - N/A   Unknown
5:20 AM 62.6 °F 57.2 °F 82% 30.12 in 6.2 mi WSW 9.2 mph - N/A   Unknown
5:50 AM 62.6 °F 57.2 °F 82% 30.12 in 6.2 mi SW 8.1 mph - N/A   Unknown
6:20 AM 60.8 °F 57.2 °F 88% 30.12 in - WSW 8.1 mph - N/A   Clear
6:50 AM 62.6 °F 57.2 °F 82% 30.12 in - WSW 8.1 mph - N/A   Clear
7:20 AM 62.6 °F 57.2 °F 82% 30.12 in 6.2 mi WSW 8.1 mph - N/A   Partly Cloudy
7:50 AM 62.6 °F 57.2 °F 82% 30.12 in 6.2 mi WSW 8.1 mph - N/A   Partly Cloudy
8:20 AM 64.4 °F 57.2 °F 77% 30.12 in 6.2 mi WSW 8.1 mph - N/A   Partly Cloudy
8:50 AM 66.2 °F 57.2 °F 73% 30.12 in 6.2 mi WSW 9.2 mph - N/A   Partly Cloudy
9:20 AM 68.0 °F 57.2 °F 68% 30.12 in 6.2 mi WSW 11.5 mph - N/A   Partly Cloudy
9:50 AM 69.8 °F 57.2 °F 64% 30.09 in 6.2 mi WSW 10.4 mph - N/A   Partly Cloudy
10:20 AM 69.8 °F 57.2 °F 64% 30.09 in 6.2 mi WSW 10.4 mph - N/A   Scattered Clouds
10:50 AM 71.6 °F 59.0 °F 64% 30.09 in 6.2 mi WSW 9.2 mph - N/A   Scattered Clouds
11:20 AM 71.6 °F 59.0 °F 64% 30.09 in 6.2 mi WSW 9.2 mph - N/A   Mostly Cloudy
11:50 AM 73.4 °F 57.2 °F 57% 30.09 in 6.2 mi SW 11.5 mph - N/A   Scattered Clouds
12:20 PM 71.6 °F 57.2 °F 60% 30.09 in 6.2 mi SW 11.5 mph - N/A   Scattered Clouds
12:50 PM 73.4 °F 59.0 °F 61% 30.09 in 6.2 mi WSW 12.7 mph - N/A   Scattered Clouds
1:20 PM 73.4 °F 57.2 °F 57% 30.09 in 6.2 mi WSW 16.1 mph - N/A   Scattered Clouds
1:50 PM 71.6 °F 57.2 °F 60% 30.09 in 6.2 mi WSW 13.8 mph - N/A   Partly Cloudy
2:20 PM 73.4 °F 55.4 °F 53% 30.06 in 6.2 mi WSW 15.0 mph - N/A   Scattered Clouds
2:50 PM 75.2 °F 55.4 °F 50% 30.06 in 6.2 mi WSW 13.8 mph - N/A   Scattered Clouds
3:20 PM 75.2 °F 57.2 °F 53% 30.06 in 6.2 mi WSW 10.4 mph - N/A   Partly Cloudy
3:50 PM 77.0 °F 57.2 °F 50% 30.06 in 6.2 mi WSW 12.7 mph - N/A   Scattered Clouds
4:20 PM 77.0 °F 55.4 °F 47% 30.04 in 6.2 mi WSW 15.0 mph - N/A   Partly Cloudy
4:50 PM 77.0 °F 57.2 °F 50% 30.04 in 6.2 mi WSW 11.5 mph - N/A   Partly Cloudy
5:20 PM 75.2 °F 55.4 °F 50% 30.04 in - West 13.8 mph - N/A   Clear
5:50 PM 75.2 °F 55.4 °F 50% 30.04 in - West 13.8 mph - N/A   Clear
6:20 PM 75.2 °F 55.4 °F 50% 30.04 in - WSW 12.7 mph - N/A   Clear
6:50 PM 75.2 °F 55.4 °F 50% 30.04 in - West 11.5 mph - N/A   Clear
7:20 PM 75.2 °F 57.2 °F 53% 30.04 in - West 11.5 mph - N/A   Clear
7:50 PM 73.4 °F 57.2 °F 57% 30.06 in 6.2 mi West 17.3 mph - N/A   Partly Cloudy
8:20 PM 71.6 °F 57.2 °F 60% 30.06 in 6.2 mi West 17.3 mph - N/A   Partly Cloudy
8:50 PM 69.8 °F 57.2 °F 64% 30.09 in - West 17.3 mph - N/A   Clear
9:20 PM 69.8 °F 57.2 °F 64% 30.09 in 6.2 mi West 15.0 mph - N/A   Unknown
9:50 PM 68.0 °F 57.2 °F 68% 30.09 in 6.2 mi West 12.7 mph - N/A   Unknown
10:20 PM 68.0 °F 59.0 °F 73% 30.09 in 6.2 mi West 12.7 mph - N/A   Partly Cloudy
10:50 PM 68.0 °F 59.0 °F 73% 30.09 in 6.2 mi West 13.8 mph - N/A   Mostly Cloudy
11:20 PM 68.0 °F 59.0 °F 73% 30.09 in 6.2 mi West 13.8 mph - N/A   Partly Cloudy
11:50 PM 68.0 °F 59.0 °F 73% 30.12 in 6.2 mi West 12.7 mph - N/A   Unknown